Location: Byszew
(52.1813°N, 19.2693°E)
Time: 04:24:02
(UTC+00:00)

SPROUT - Pass Details

Date: 04 July 2022
Orbit: 588 x 598 km, 97.9° (Epoch: 18 August)

Event Time Altitude Azimuth Distance (km) Brightness Sun altitude
Exits shadow 00:47:58 10° 240° (WSW) 1,910 ? -10.4°
Maximum altitude 00:50:08 14° 272° (W) 1,675 ? -10.3°
Drops below altitude 10° 00:52:21 10° 304° (NW) 1,927 ? -10.1°
Sets 00:55:30 0° 331° (NNW) 2,837 ? -9.9°
